1st Responders/1st Detectors/Storm Spotters Weather Summary for Caldwell County, KY

Forecast Maps


Reg. NEXRAD Animation


National Fire Danger: Day 1 & 2 Map

Current NWS Watch/Warnings

SPC Convective Day 1 Outlook


Day 2 Outlook

(Click images to enlarge|Page will refresh every 5 minutes)
UK Ag. Weather Center Desktop Severe Weather Service[HERE]
Caldwell County, KY Hazardous Weather Outlook Webcast
(9 AM to 9 PM Mon-Fri)
[Fast]
[Dial-up]


UKAWC 1st Detectors/1st Responders Precision Weather Forecast For CALDWELL County, Kentucky
(based on the NWS County Digital Forecast)

ISSUED AT 10:00 UTC ON THURSDAY MAY 23 2019
DAY THURSDAY
CDT 3HR 6A 7A 8A 9A 10A 11A NOON 1P 2P 3P 4P 5P 6P
MAX/MIN -- 72° -- -- -- -- -- -- -- -- -- -- 88°
TEMP 72° 74° 74° 76° 79° 83° 85° 88° 88° 86° 85° 85° 85°
SKY COVER 62% 63% 64% 62% 64% 66% 61% 62% 54% 49% 46% 38% 31%
Clouds
DEW PT 67° 68° 70° 70° 72° 72° 72° 70° 70° 70° 70° 70° 70°
RH 84% 84% 84% 81% 76% 69% 62% 57% 56% 57% 58% 59% 62%
POP 12HR -- 20% -- -- -- -- -- -- -- -- -- -- --
RAIN/SNOW (liq.equ) -- 0.02in -- -- -- -- -- 0.02in -- -- -- -- --
SNOWFALL -- 0in -- -- -- -- -- 0in -- -- -- -- --
WIND SPEED(MPH) 7 7 8 9 10 13 13 13 13 13 10 8 7
WIND Gust(MPH) 9 10 13 15 15 16 16 16 16 16 15 14 9
WIND DIR SW SW SW SW SW SW SW SW SW SW SW SW SW
DEW Mod Dew Lgt Dew Mod Dew Lgt Dew -- -- -- -- -- -- -- -- --
HeatIndex 72 74 74 76 83 88 92 94 94 92 90 90 90
Rain Showers Slight Chance Slight Chance Slight Chance -- -- -- -- -- -- -- -- -- --
Thunder Storm Slight Chance Slight Chance Slight Chance -- -- -- -- -- -- -- -- -- --
WIND CHILL -- -- -- -- -- -- -- -- -- -- -- -- --
SPRAY COND
DRY COND
LIVESTOCK HEATSTRESS 70.84 72.66 72.66 74.20 76.33 78.87 79.52 81.09 80.93 79.57 78.95 79.09 79.52



DAY FRIDAY SATURDAY SUNDAY MONDAY TUESDAY WEDNESDAY
CDT 6HR 7P 8P 9P 10P 11P MIDN 1A 2A 3A 4A 5A 6A 7A 8A 9A 10A 11A NOON 1P 2P 3P 4P 5P 7P 10P 1A 4A 7A 10A 1P 4P 7P 1A 7A 1P 7P 1A 7A 1P 7P 1A 7A 1P 7P 1A 7A 1P 7P
MAX/MIN -- -- -- -- -- -- -- -- -- -- -- -- 67° -- -- -- -- -- -- -- -- -- 88° -- -- -- -- 68° -- -- 88° -- -- 67° 86° -- -- 67° 86° -- -- 67° 88° -- -- 68° 85° --
TEMP 83° 81° 79° 76° 74° 72° 70° 70° 68° 67° 67° 67° 70° 74° 77° 81° 85° 86° 88° 88° 88° 88° 88° 85° 76° 74° 70° 70° 83° 88° 88° 85° 70° 68° 85° 83° 70° 68° 85° 81° 70° 68° 86° 83° 72° 70° 83° 79°
SKY COVER 24% 24% 26% 27% 22% 18% 13% 13% 14% 14% 12% 10% 8% 7% 7% 6% 13% 19% 26% 28% 29% 31% 27% 20% 17% 17% 17% 20% 10% 24% 16% 18% 22% 26% 50% 61% 55% 65% 65% 58% 39% 35% 29% 25% 49% 56% 57% 47%
Clouds
DEW PT 70° 70° 70° 68° 67° 67° 67° 65° 65° 65° 65° 65° 65° 67° 67° 67° 67° 67° 67° 67° 67° 67° 67° 68° 67° 67° 65° 67° 67° 65° 65° 67° 63° 65° 67° 67° 65° 65° 67° 67° 65° 65° 65° 65° 65° 65° 63° 63°
RH 65% 69% 74% 79% 81% 87% 86% 87% 87% 90% 93% 89% 86% 78% 68% 62% 57% 53% 51% 51% 48% 48% 50% 58% 73% 79% 87% 87% 58% 48% 47% 55% 81% 87% 54% 58% 87% 90% 54% 62% 83% 86% 48% 53% 76% 86% 52% 60%
POP 12HR 18% -- -- -- -- -- -- -- -- -- -- -- 5% -- -- -- -- -- -- -- -- -- -- 7% -- -- -- 4% -- -- -- 5% -- 3% -- 7% -- 6% -- 15% -- 3% -- 5% -- 17% -- 25%
RAIN/SNOW (liq.equ) 0.00in -- -- -- -- -- 0.00in -- -- -- -- -- 0.00in -- -- -- -- -- 0.00in -- -- -- -- 0.00in -- 0.00in -- 0.00in -- 0.00in -- 0.00in -- -- -- -- -- -- -- -- -- -- -- -- -- -- -- --
SNOWFALL 0in -- -- -- -- -- 0in -- -- -- -- -- 0in -- -- -- -- -- 0in -- -- -- -- 0in -- 0in -- 0in -- 0in -- 0in -- -- -- -- -- -- -- -- -- -- -- -- -- -- -- --
WIND SPEED(MPH) 6 5 5 5 5 5 5 5 5 5 5 5 5 6 6 7 7 7 8 8 8 8 7 6 5 5 5 6 8 10 10 7 6 6 9 7 5 2 7 7 6 7 14 9 9 9 15 9
WIND DIR SW SW S S S S S S S S S S S SW SW SW SW SW SW SW SW SW SW S S S S S SW SW SW SW SW SW SW W SW S SW SW S S SW SW SW SW SW SW
HeatIndex 88 86 79 76 74 72 70 70 68 67 67 67 70 74 77 85 88 90 91 91 92 92 91 88 76 74 70 70 85 90 91 87 70 68 87 85 70 68 87 83 70 68 88 85 72 70 84 79
Rain Showers -- -- -- -- -- -- -- -- -- -- -- -- -- -- -- -- -- -- -- -- -- -- -- -- -- -- -- -- -- -- -- -- -- -- -- -- -- -- Slight Chance -- -- -- -- -- Slight Chance -- Chance --
Thunder Storm -- -- -- -- -- -- -- -- -- -- -- -- -- -- -- -- -- -- -- -- -- -- -- -- -- -- -- -- -- -- -- -- -- -- -- -- -- -- Slight Chance -- -- -- -- -- -- -- Slight Chance --
WIND CHILL -- -- -- -- -- -- -- -- -- -- -- -- -- -- -- -- -- -- -- -- -- -- -- -- -- -- -- -- -- -- -- -- -- -- -- -- -- -- -- -- -- -- -- -- -- -- -- --
SPRAY COND
DRY COND
LIVESTOCK HEATSTRESS 78.34 77.21 76.11 74.01 72.41 71.06 69.14 69.20 67.34 66.55 66.68 66.50 69.14 72.16 73.80 76.36 78.80 78.97 80.13 80.13 79.65 79.65 79.97 78.95 73.45 72.24 69.20 69.20 77.41 79.65 79.49 78.52 68.83 67.34 78.37 77.41 69.20 67.49 78.37 76.36 68.95 67.29 78.22 76.74 70.26 69.14 76.61 74.56

Click on individual weather variable above in left-hand column (ie., TEMP, RH, QPF 12HR) to view state forecast maps






NWS 48 Hr. Forecast Maps,

Regional Hourly Observations For CALDWELL County, Kentucky
Issued at 600 AM EDT THU MAY 23 2019
WESTERN AND SOUTH CENTRAL KENTUCKY
  
CITY           SKY/WX    TMP DP  RH WIND       PRES   REMARKS
PADUCAH        FAIR      77  68  73 VRB7      30.06R                  
HENDERSON      FAIR      75  68  78 S8        30.06R                  
OWENSBORO      FAIR      74  67  78 S9        30.08R                  
HOPKINSVILLE   FAIR      71  67  87 SW6       30.10R                  
BOWLING GREEN  FAIR      71  57  61 S6        30.12R                  
GLASGOW        FAIR      69  56  63 CALM      30.13R                  


Current NOWCAST not available:
Nowcasts are not issued routinely during fair weather. Only when
precipitation or other significant weather is occuring in this county will these
forecasts be issued. Currently, there is no short term forecast in effect.


Fire Weather Forecast For CALDWELL County, KY
Provided by the National Weather Service:

Issued at: Thu May 23 06:05:01 EDT 2019

Precip Type           None         None         None         
Chance Precip (%)     20           10           10           
High Temperature(F)   85-89                     87-91        
Minimum RH(%)         47-52                     40-45        
Low Temperature(F)                 65-69                     
Maximum RH(%)                      93-98                     
Temp (24h Trend)      88 (+5)      67 (-5)      90           
RH % (24h Trend)      50 (-13)     96 (+3)      43           
20FTWND-AM(MPH)       SW 7-11 G18               SW 4-8       
20FTWND-PM(MPH)       SW 8-12 G19  Lgt/Var      SW 6-10      
Precip Amount         0.01         0.00         0.00         
Precip Duration       0            0            0            
Precip Begin          7 AM                                   
Precip End            9 AM                                   
1700'Mix Hgt Temp     82                        84           
Mixing Hgt(FT-AGL)    5200                      7400         
Transport Wind (KTS)  SW 19                     SW 10        
Transport Wind (M/S)  SW 10                     SW  5        
Vent Rate (M/S-M)     15645                     11661        
Dispersion Index      Good                      Good         
LAL                   2            1            1            
Haines Index          3            3            3            
Stability(DSI)        SLGT UNSTBL  N/A          MOD UNSTBL   

Remarks...None.

.Forecast for days 3 through 7...

.FRIDAY NIGHT...Mostly clear. Lows in the upper 60s. South winds
around 5 mph. 
.SATURDAY...Sunny. Highs in the upper 80s. Southwest winds 5 to
15 mph. 
.SATURDAY NIGHT...Mostly clear. Lows in the upper 60s. Southwest
winds 5 to 10 mph. 
.SUNDAY...Mostly sunny with a 20 percent chance of showers. Highs
in the upper 80s. Southwest winds 5 to 10 mph. 
.SUNDAY NIGHT...Partly cloudy. Lows in the upper 60s. Southwest
winds 5 to 10 mph. 
.MEMORIAL DAY...Mostly sunny. Highs in the upper 80s. Southwest
winds 5 to 10 mph. 
.MONDAY NIGHT...Partly cloudy. Lows in the upper 60s. Southwest
winds 5 to 10 mph. 
.TUESDAY...Mostly sunny. Highs in the upper 80s. Southwest winds
10 to 15 mph. 
.TUESDAY NIGHT...Partly cloudy. Lows in the upper 60s. Southwest
winds 10 to 15 mph. 
.WEDNESDAY...Mostly sunny with a 20 percent chance of showers and
thunderstorms. Highs in the mid 80s. Southwest winds 10 to
20 mph. 

SPC's Fire Weather Web Tool (Excellent!), SPC's Fire Weather Outlooks, NWS Fire Weather WEB, Fire Danger Class Map,
Keetch-Byram Drought Index, ROMAN Web, Haines Index ,
WFAS's 10-hr Dead Fuel Moist., WFAS's 100-hr Dead Fuel Moist., Probablity of Ignition, Visual blackness Map, Palmer Drought Index, HPC's Rainfall Forecast Maps


Hazardous Weather Outlook For CALDWELL County, Kentucky
359 AM CDT Thu May 23 2019

 DAY ONE  Today and Tonight

A small chance of thunderstorms is forecast today and tonight. 
The best chance of storms will be along and north of Interstate 
64, in southern Illinois and southwest Indiana. There is a 
marginal risk a storm may become severe, with damaging winds and 
large hail as the primary severe weather hazards. Otherwise, 
locally heavy rain and lightning will be the primary storm 
hazards.

Refer to the latest river flood warnings and statements for
details on area river flooding.

 DAYS TWO THROUGH SEVEN  Friday through Wednesday

There is an almost daily chance of thunderstorms during the period
from Saturday to Wednesday, with the main chance being during the
heat of the day. While an isolated strong storm capable of
producing gusty winds and hail cannot be ruled out, most storms
will have locally heavy rain and lightning as their primary
hazards.

Detailed information on area river flooding can be found on the
latest updated river flood warnings and statements.

 SPOTTER INFORMATION STATEMENT  

Spotter activation is not anticipated.

Latest CALDWELL County, Kentucky Watches, Warnings and Advisories.
Additional Drought Info.: UKAWC Drought Page, Kentucky Drought Watch


7-Day Forecast For CALDWELL County, KY

TODAY
Partly sunny. A 20 percent chance of showers and thunderstorms in the morning. Highs in the upper 80s. Southwest winds around 10 mph.

TONIGHT
Mostly clear. Lows in the upper 60s. Southwest winds around 5 mph.

FRIDAY
Mostly sunny. Highs in the upper 80s. Southwest winds 5 to 10 mph.

FRIDAY NIGHT
Mostly clear. Lows in the upper 60s. South winds 5 to 10 mph.

SATURDAY
Mostly sunny. Highs in the upper 80s. Southwest winds 5 to 10 mph.

SATURDAY NIGHT
Mostly clear. Lows in the upper 60s.

SUNDAY
Partly sunny. A 20 percent chance of showers in the afternoon. Highs in the upper 80s.

SUNDAY NIGHT
Partly cloudy. Lows in the upper 60s.

MEMORIAL DAY
Partly sunny. Highs in the upper 80s.

MONDAY NIGHT
Mostly clear. Lows in the upper 60s.

TUESDAY
Mostly sunny. Highs in the upper 80s.

TUESDAY NIGHT
Partly cloudy. Lows in the upper 60s.

WEDNESDAY
Partly sunny. A 20 percent chance of showers and thunderstorms in the afternoon. Highs in the mid 80s.

Ag Weather Center, Department of Biosystems & Agricultural Engineering, University of Kentucky